Change the Weather History Date:

Saturday, August 31, 2013

  Actual Average Record
Temperature  
Mean Temperature 79 °F -  
Max Temperature 87 °F 89 °F 95 °F (2008)
Min Temperature 71 °F 73 °F 69 °F (2007)
Cooling Degree Days 14    
Growing Degree Days 29 (Base 50)    
Moisture  
Dew Point 75 °F    
Average Humidity 86    
Maximum Humidity 100    
Minimum Humidity 66    
Precipitation  
Precipitation 0.00 in - - ()
Sea Level Pressure  
Sea Level Pressure 29.93 in    
Wind  
Wind Speed 2 mph ()    
Max Wind Speed 9 mph    
Max Gust Speed -    
Visibility 6.5 miles    
Events      
Averages and records for this station are not official NWS values.
T = Trace of Precipitation, MM = Missing Value Source: Averaged Metar Reports

Daily Weather History Graph

Daily Weather History Graph

Search for Another Location

Airport or City:

Trip Planner

Search our weather history database for the weather conditions in past years. The results will help you decide how hot, cold, wet, or windy it might be!

Date:

Astronomy

Aug. 31, 2013 Rise Set
Actual Time 6:31 AM CDT 7:04 PM CDT
Civil Twilight 6:08 AM CDT 7:26 PM CDT
Nautical Twilight 5:42 AM CDT 7:52 PM CDT
Astronomical Twilight 5:15 AM CDT 8:19 PM CDT
Moon 2:20 AM CDT (8/31) 3:43 PM CDT (8/31)
Length of Visible Light 13h 18m
Length of Day
12h 33m
Waning Crescent, 21% of the Moon is Illuminated
Aug 31
Waning Crescent
Sep 5
New
Sep 12
First Quarter
Sep 19
Full
Sep 26
Last Quarter

Hourly Weather History & Observations

Time (CDT) Temp. Heat Index Dew Point Humidity Pressure Visibility Wind Dir Wind Speed Gust Speed Precip Events Conditions
12:46 AM 77.0 °F - 75.2 °F 94% 29.94 in 7.0 mi Calm Calm - N/A   Partly Cloudy
1:40 AM 75.2 °F - 73.4 °F 94% 29.94 in 6.0 mi Calm Calm - N/A   Partly Cloudy
2:40 AM 75.2 °F - 73.4 °F 94% 29.92 in 6.0 mi NW 4.6 mph - N/A   Partly Cloudy
3:45 AM 73.4 °F - 73.4 °F 100% 29.90 in 6.0 mi Calm Calm - N/A   Partly Cloudy
4:43 AM 73.4 °F - 71.6 °F 94% 29.91 in 6.0 mi Calm Calm - N/A   Partly Cloudy
5:43 AM 73.4 °F - 71.6 °F 94% 29.91 in 6.0 mi Calm Calm - N/A   Partly Cloudy
6:45 AM 71.6 °F - 71.6 °F 100% 29.91 in 6.0 mi Calm Calm - N/A   Scattered Clouds
7:42 AM 75.2 °F - 73.4 °F 94% 29.93 in 7.0 mi Calm Calm - N/A   Scattered Clouds
8:43 AM 80.6 °F 87.1 °F 77.0 °F 89% 29.95 in 7.0 mi Calm Calm - N/A   Mostly Cloudy
9:43 AM 84.2 °F 92.3 °F 75.2 °F 74% 29.96 in 7.0 mi East 4.6 mph - N/A   Mostly Cloudy
10:42 AM 86.0 °F 95.1 °F 75.2 °F 70% 29.97 in 7.0 mi ENE 4.6 mph - N/A   Mostly Cloudy
11:41 AM 87.8 °F 97.6 °F 75.2 °F 66% 29.97 in 7.0 mi ENE 8.1 mph - N/A   Mostly Cloudy
12:40 PM 87.8 °F 99.7 °F 77.0 °F 70% 29.95 in 7.0 mi East 8.1 mph - N/A   Mostly Cloudy
1:43 PM 86.0 °F 96.9 °F 77.0 °F 74% 29.94 in 7.0 mi ENE 9.2 mph - N/A   Mostly Cloudy
2:40 PM 84.2 °F 92.3 °F 75.2 °F 74% 29.91 in 6.0 mi NE 4.6 mph - N/A   Mostly Cloudy
3:43 PM 80.6 °F 87.1 °F 77.0 °F 89% 29.91 in 6.0 mi North 2.3 mph - N/A   Mostly Cloudy
4:45 PM 84.2 °F 92.3 °F 75.2 °F 74% 29.91 in 6.0 mi ENE 5.8 mph - N/A   Mostly Cloudy
5:42 PM 84.2 °F 94.1 °F 77.0 °F 79% 29.91 in 7.0 mi East 9.2 mph - N/A   Mostly Cloudy
6:44 PM 82.4 °F 90.9 °F 77.0 °F 84% 29.91 in 7.0 mi NE 2.3 mph - N/A   Mostly Cloudy
7:42 PM 78.8 °F - 73.4 °F 83% 29.92 in 7.0 mi East 3.5 mph - N/A   Mostly Cloudy
8:47 PM 78.8 °F - 75.2 °F 89% 29.93 in 7.0 mi Calm Calm - N/A   Mostly Cloudy
9:45 PM 77.0 °F - 75.2 °F 94% 29.96 in 6.0 mi East 3.5 mph - N/A   Mostly Cloudy
10:42 PM 80.6 °F 87.1 °F 77.0 °F 89% 29.96 in 6.0 mi East 2.3 mph - N/A   Mostly Cloudy
11:43 PM 78.8 °F - 77.0 °F 94% 29.94 in 6.0 mi NE 2.3 mph - N/A   Scattered Clouds